Flag for Norway Weather past 2 weeks in Mosjøen, Norway

Now
46 °F

Cool.


Feels Like: 45 °F
Forecast: 33 / 41 °F
Wind: 3 mph from Southwest

Location: Mosjoen Kjaerstad


UV Index: 0 (Low)

Visibility: N/A


Pressure: 30.04 "Hg

Humidity: 81%

Dew point: 40 °F

Location of MosjøenLocation

Historic Weather in Mosjøen

°F

Mosjøen temperature yesterday

Maximum temperature yesterday: 44 °F (at 4:00 PM)
Minimum temperature yesterday: 34 °F (at 6:00 AM)
Average temperature yesterday: 40 °F

Past Weeks' High & Low Weather Summary

 TemperatureHumidityPressure
High47 °F (Apr 7, 3:00 PM)97% (Apr 7, 6:00 AM)30.17 "Hg (Apr 7, 6:00 AM)
Low27 °F (Apr 5, 12:00 AM)38% (Apr 9, 6:00 PM)28.97 "Hg (Apr 13, 9:00 AM)
Average39 °F77%29.70 "Hg
* Reported Apr 4 1:00 PM — Apr 19 1:00 PM, Mosjøen, Weather by CustomWeather, © 2014

Note: Actual official high and low records may vary slightly from our data, if they occured in-between our weather recording intervals... More about our weather records

Advertising

Historic Weather Conditions — Data for Previous 24 hours

 ConditionsComfort  
Time TempWeatherWind HumidityBarometerVisibility
1:00 PM
Apr 19
46 °FCool.7 mph81%30.01 "HgN/A
12:00 PM46 °FCool.7 mph82%30.01 "HgN/A
11:00 AM45 °FCool.7 mph82%29.99 "HgN/A
10:00 AM44 °FQuite cool.5 mph83%29.98 "HgN/A
9:00 AM43 °FQuite cool.6 mph86%29.98 "HgN/A
8:00 AM40 °FQuite cool.3 mph89%29.97 "HgN/A
7:00 AM40 °FChilly.5 mph88%29.96 "HgN/A
6:00 AM39 °FChilly.6 mph86%29.96 "HgN/A
5:00 AM40 °FQuite cool.6 mph77%29.94 "HgN/A
4:00 AM43 °FQuite cool.8 mph67%29.95 "HgN/A
3:00 AM42 °FQuite cool.6 mph64%29.98 "HgN/A
2:00 AM45 °FQuite cool.5 mph48%29.96 "HgN/A
1:00 AM44 °FQuite cool.5 mph49%29.96 "HgN/A
12:00 AM44 °FQuite cool.5 mph54%29.96 "HgN/A
11:00 PM
Apr 18
43 °FQuite cool.3 mph56%29.97 "HgN/A
10:00 PM41 °FQuite cool.3 mph61%29.98 "HgN/A
9:00 PM42 °FQuite cool.5 mph62%29.98 "HgN/A
8:00 PM42 °FQuite cool.6 mph58%29.98 "HgN/A
7:00 PM42 °FQuite cool.6 mph55%29.99 "HgN/A
6:00 PM43 °FQuite cool.6 mph54%29.99 "HgN/A
5:00 PM44 °FQuite cool.6 mph48%29.99 "HgN/A
4:00 PM44 °FQuite cool.8 mph47%29.99 "HgN/A
3:00 PM42 °FQuite cool.3 mph62%29.99 "HgN/A
2:00 PM42 °FQuite cool.3 mph49%29.98 "HgN/A
Weather by CustomWeather, © 2014

See weather overview